Location: Champs
(48.8539°N, 2.6040°E)
Time: 04:33:40
(UTC+00:00)

Cosmos 1818 - Pass Details

Date: 26 October 2021
Orbit: 771 x 802 km, 65.0° (Epoch: 04 December)

Event Time Altitude Azimuth Distance (km) Brightness Sun altitude
Exits shadow 04:32:36 22° 317° (NW) 1,691 4.9 -19.4°
Maximum altitude 04:36:12 75° 235° (SW) 831 3.5 -18.8°
Drops below altitude 10° 04:41:38 10° 151° (SSE) 2,363 6.4 -17.9°
Sets 04:44:03 0° 149° (SSE) 3,286 7.2 -17.5°
